Regional Weather Roundup
Issued by NWS Green Bay, WI

Home | Current Version | Previous Version | Graphics & Text | Print | Product List | Glossary Off
Versions: 1 2 3 4 5 6 7 8 9 10 11 12 13 14 15 16 17 18 19 20 21 22 23 24 25 26 27 28 29 30 31 32 33 34 35 36 37 38 39 40 41 42 43 44 45 46 47 48 49 50

000
ASUS43 KGRB 160110
RWRGRB

NORTH-CENTRAL AND NORTHEAST WISCONSIN REGIONAL WEATHER ROUNDUP
NATIONAL WEATHER SERVICE GREEN BAY WI
800 PM CDT MON SEP 15 2014

WIZ005-009-010>012-018-019-160200-
NORTH CENTRAL WISCONSIN

CITY           SKY/WX    TMP DP  RH WIND       PRES   REMARKS
IRONWOOD       CLEAR     45  39  81 SW3       30.12S
MANITOWISH WTR CLEAR     39  38  96 CALM      30.15S
ARBOR VITAE    CLEAR     45  37  76 CALM      30.15S
EAGLE RIVER    CLEAR     42  36  80 CALM      30.14S
LAND O LAKES   MOCLDY    44  38  82 CALM      30.15S
RHINELANDER    CLEAR     45  37  73 NW3       30.16R
PHILLIPS       CLEAR     42  38  83 CALM      30.16S
ANTIGO         CLEAR     47  40  76 NW5       30.15R
TOMAHAWK       CLEAR     42  37  83 CALM      30.16S
MERRILL        MOCLDY    48  38  68 N5        30.15R
$$

WIZ013-073-160200-
NORTHEAST WISCONSIN

CITY           SKY/WX    TMP DP  RH WIND       PRES   REMARKS
IRON MOUNTAIN  CLEAR     50  39  66 NW7       30.12R
MARINETTE      CLEAR     50  46  87 CALM      30.10R
OCONTO         PTCLDY    49  49 100 W3        30.11R
$$

WIZ017-030-035>037-045-160200-
CENTRAL WISCONSIN

CITY           SKY/WX    TMP DP  RH WIND       PRES   REMARKS
MEDFORD        CLEAR     44  39  83 W5        30.16S
WAUSAU         CLEAR     50  40  68 W7        30.14R
MOSINEE        CLEAR     50  39  66 NW7       30.16R
MARSHFIELD     CLEAR     46  40  79 NW7       30.16R
WISC RAPIDS    CLEAR     49  42  77 NW5       30.17R
STEVENS POINT  CLEAR     51  39  64 NW5       30.16R
WAUPACA        CLEAR     54  49  85 W6        30.14R
SHAWANO        CLEAR     51  46  82 W3        30.13R
CLINTONVILLE   PTCLDY    52  45  76 NW3       30.13R
$$

WIZ038-039-048-051-160200-
FOX VALLEY

CITY           SKY/WX    TMP DP  RH WIND       PRES   REMARKS
NWS GREEN BAY  CLEAR     50  48  93 SW3       30.12R
APPLETON       PTCLDY    54  46  76 SW7       30.13S
OSHKOSH        CLEAR     53  47  79 CALM      30.14R
FOND DU LAC    CLEAR     50  46  86 SW5       30.14R
$$

WIZ022-050-052-160200-
EAST CENTRAL WISCONSIN

CITY           SKY/WX    TMP DP  RH WIND       PRES   REMARKS
STURGEON BAY   PTCLDY    52  46  82 CALM      30.12R
MANITOWOC      CLEAR     50  49  96 W3        30.13R
SHEBOYGAN      CLEAR     50  47  89 W5        30.14R
$$

LMZ563-521-522-541>543-160200-
LAKESHORE

STATION/POSITION TIME  TEMP    WIND        PRES    VSBY  WAVE
                       AIR SEA DIR/SP/G                  HT/PER
                 (UTC) (F)     (DEG/KT/KT) (MB)    (MI)  (FT/S)
SHEBOYGAN LKSHOR 0100   54 49  260/  4/  6 1020.8R
KEWAUNEE LKSHORE 0100   54     280/  2/  3 1018.8R
NORTHPORT PIER   0100   54     240/  2/  4 1019.3R
N MID LAKE BUOY  0100   56 59  260/  6/  6 1019.6R         1/ 5
S GREEN BAY BUOY 0100   60     VRB  4/  6  1020.5R
STURGEON BAY CG  0000   53 55   10/  3     1019.2      6   1
CHAMBERS ISLAND  0100   50     240/  2/  4 1019.3R
MENOMINEE LKSHOR 0100   56     220/  2/  4 1019.9R
$$


USA.gov is the U.S. government's official web portal to all federal, state and local government web resources and services.